Kozani, Greece

6:39 AM EEST on August 21, 2017 (GMT +0300)
Kozani

Weather History for LGKZ - April, 2013

Change the Weather History Date:

Sunday, April 21, 2013

  Actual Average Record
Temperature  
Mean Temperature 55 °F -  
Max Temperature 68 °F - - ()
Min Temperature 42 °F - - ()
Degree Days  
Heating Degree Days 10    
Growing Degree Days 5 (Base 50)    
Moisture  
Dew Point 39 °F    
Average Humidity 58    
Maximum Humidity 81    
Minimum Humidity 30    
Precipitation  
Precipitation 0.00 in - - ()
Sea Level Pressure  
Sea Level Pressure 30.03 in    
Wind  
Wind Speed 3 mph ()    
Max Wind Speed 7 mph    
Max Gust Speed -    
Visibility 6.2 miles    
Events Rain    
T = Trace of Precipitation, MM = Missing Value Source: Averaged Metar Reports

Daily Weather History Graph

Daily Weather History Graph

Search for Another Location

Airport or City:

Trip Planner

Search our weather history database for the weather conditions in past years. The results will help you decide how hot, cold, wet, or windy it might be!

Date:

Astronomy

Apr. 21, 2013 Rise Set
Actual Time 6:45 AM EEST 8:17 PM EEST
Civil Twilight 6:17 AM EEST 8:46 PM EEST
Nautical Twilight 5:42 AM EEST 9:21 PM EEST
Astronomical Twilight 5:06 AM EEST 9:57 PM EEST
Moon 3:43 PM EEST 3:58 AM EEST
Length of Visible Light 14h 29m
Length of Day
13h 32m
Waxing Gibbous, 77% of the Moon is Illuminated
Apr 21
Waxing Gibbous
Apr 25
Full
May 2
Last Quarter
May 10
New
May 18
First Quarter

Hourly Weather History & Observations

Time (EEST) Temp. Windchill Dew Point Humidity Pressure Visibility Wind Dir Wind Speed Gust Speed Precip Events Conditions
12:20 AM 50.0 °F - 39.2 °F 66% 30.06 in - Variable 1.2 mph - N/A Rain Light Rain
12:50 AM 48.2 °F - 39.2 °F 71% 30.06 in - Variable 2.3 mph - N/A   Unknown
1:20 AM 48.2 °F - 39.2 °F 71% 30.06 in - North 4.6 mph - N/A   Unknown
1:50 AM 48.2 °F - 39.2 °F 71% 30.06 in - Variable 2.3 mph - N/A   Unknown
2:20 AM 46.4 °F 45.2 °F 37.4 °F 71% 30.06 in - Variable 3.5 mph - N/A   Unknown
2:50 AM 46.4 °F 44.3 °F 37.4 °F 71% 30.06 in - North 4.6 mph - N/A   Unknown
3:20 AM 46.4 °F - 39.2 °F 76% 30.06 in - Variable 2.3 mph - N/A   Unknown
3:50 AM 44.6 °F 42.2 °F 39.2 °F 81% 30.06 in - North 4.6 mph - N/A   Unknown
4:20 AM 46.4 °F 44.3 °F 39.2 °F 76% 30.04 in - NNW 4.6 mph - N/A   Unknown
4:50 AM 46.4 °F 43.5 °F 39.2 °F 76% 30.04 in - North 5.8 mph - N/A   Unknown
5:20 AM 44.6 °F 43.1 °F 39.2 °F 81% 30.04 in - Variable 3.5 mph - N/A   Unknown
5:50 AM 42.8 °F 40.1 °F 37.4 °F 81% 30.04 in - North 4.6 mph - N/A   Unknown
6:20 AM 44.6 °F 42.2 °F 39.2 °F 81% 30.04 in - NNW 4.6 mph - N/A   Unknown
6:50 AM 44.6 °F 42.2 °F 37.4 °F 76% 30.04 in - NW 4.6 mph - N/A   Unknown
7:20 AM 46.4 °F 42.9 °F 37.4 °F 71% 30.06 in - NNW 6.9 mph - N/A   Unknown
7:50 AM 48.2 °F - 39.2 °F 71% 30.06 in - Variable 2.3 mph - N/A   Unknown
8:20 AM 51.8 °F - 39.2 °F 62% 30.06 in - Variable 3.5 mph - N/A   Unknown
8:50 AM 53.6 °F - 41.0 °F 62% 30.06 in - Variable 2.3 mph - N/A   Unknown
9:20 AM 55.4 °F - 41.0 °F 58% 30.06 in - Variable 3.5 mph - N/A   Unknown
9:50 AM 57.2 °F - 42.8 °F 59% 30.06 in - Variable 3.5 mph - N/A   Unknown
10:20 AM 59.0 °F - 41.0 °F 51% 30.06 in - Variable 2.3 mph - N/A   Unknown
10:50 AM 59.0 °F - 39.2 °F 48% 30.06 in - NNW 4.6 mph - N/A   Unknown
11:20 AM 62.6 °F - 39.2 °F 42% 30.06 in - Variable 2.3 mph - N/A   Unknown
11:50 AM 62.6 °F - 37.4 °F 39% 30.06 in - Variable 3.5 mph - N/A   Unknown
12:20 PM 64.4 °F - 42.8 °F 45% 30.04 in - SSE 6.9 mph - N/A   Unknown
12:50 PM 64.4 °F - 44.6 °F 49% 30.04 in - SSE 4.6 mph - N/A   Unknown
1:20 PM 66.2 °F - 41.0 °F 40% 30.04 in - SSE 6.9 mph - N/A   Unknown
1:50 PM 68.0 °F - 35.6 °F 30% 30.04 in - SSE 4.6 mph - N/A   Unknown
2:20 PM 64.4 °F - 35.6 °F 34% 30.01 in - ENE 5.8 mph - N/A   Unknown
2:50 PM 66.2 °F - 35.6 °F 32% 30.01 in 6.2 mi SSE 6.9 mph - N/A   Scattered Clouds
3:50 PM 68.0 °F - 35.6 °F 30% 30.01 in 6.2 mi Calm Calm - N/A   Scattered Clouds
4:50 PM 66.2 °F - 35.6 °F 32% 29.98 in 6.2 mi Calm Calm - N/A   Scattered Clouds
5:50 PM 66.2 °F - 33.8 °F 30% 29.98 in 6.2 mi SE 4.6 mph - N/A   Scattered Clouds
6:50 PM 64.4 °F - 39.2 °F 40% 29.95 in 6.2 mi Calm Calm - N/A   Scattered Clouds
7:50 PM 60.8 °F - 41.0 °F 48% 29.98 in 6.2 mi Calm Calm - N/A   Partly Cloudy
8:50 PM 53.6 °F - 39.2 °F 58% 29.98 in 6.2 mi Calm Calm - N/A   Partly Cloudy
9:20 PM 53.6 °F - 37.4 °F 54% 30.01 in - Variable 1.2 mph - N/A   Unknown
9:50 PM 51.8 °F - 37.4 °F 58% 30.01 in - Variable 2.3 mph - N/A   Unknown
10:20 PM 53.6 °F - 37.4 °F 54% 30.01 in - Variable 3.5 mph - N/A   Unknown
10:50 PM 50.0 °F - 37.4 °F 62% 30.01 in - Variable 1.2 mph - N/A   Unknown
11:20 PM 51.8 °F - 37.4 °F 58% 30.01 in - Variable 3.5 mph - N/A   Unknown
11:50 PM 50.0 °F - 35.6 °F 58% 30.01 in - Variable 3.5 mph - N/A   Unknown